Weather History for Buffalo, WY

Change the Weather History Date:

Wednesday, April 17, 2013

  Actual Average Record
Temperature  
Mean Temperature 22 °F 44 °F  
Max Temperature 27 °F 54 °F 78 °F (2005)
Min Temperature 16 °F 33 °F 16 °F (2013)
Degree Days  
Heating Degree Days 43 21  
Month to date heating degree days 493 406  
Since 1 July heating degree days 6377 6596  
Cooling Degree Days 0 0  
Month to date cooling degree days 0 0  
Year to date cooling degree days 0 0  
Moisture  
Dew Point 16 °F    
Average Humidity 77    
Maximum Humidity 92    
Minimum Humidity 62    
Precipitation  
Precipitation 0.02 in 0.04 in 0.25 in (2011)
Month to date precipitation 0.36 0.54  
Year to date precipitation 1.05 2.23  
Sea Level Pressure  
Sea Level Pressure 30.21 in    
Wind  
Wind Speed 17 mph (North)    
Max Wind Speed 31 mph    
Max Gust Speed 38 mph    
Visibility 5 miles    
Events Snow    
T = Trace of Precipitation, MM = Missing Value Source: NWS Daily Summary

Daily Weather History Graph

Daily Weather History Graph

Search for Another Location

Airport:

Trip Planner

Search our weather history database for the weather conditions in past years. The results will help you decide how hot, cold, wet, or windy it might be!

Date:

Astronomy

Apr. 17, 2013 Rise Set
Actual Time 6:19 AM MDT 7:54 PM MDT
Civil Twilight 5:48 AM MDT 8:24 PM MDT
Nautical Twilight 5:11 AM MDT 9:02 PM MDT
Astronomical Twilight 4:32 AM MDT 9:41 PM MDT
Moon 11:31 AM MDT (4/17) 1:38 AM MDT (4/17)
Length of Visible Light 14h 36m
Length of Day
13h 35m
Waxing Crescent, 43% of the Moon is Illuminated
Apr 17
Waxing Crescent
Apr 18
First Quarter
Apr 25
Full
May 2
Last Quarter
May 9
New

Hourly Weather History & Observations

Time (MDT) Temp. Windchill Dew Point Humidity Pressure Visibility Wind Dir Wind Speed Gust Speed Precip Events Conditions
12:11 AM 21.2 °F 16.4 °F 17.6 °F 86% 30.17 in 2.0 mi NNE 3.5 mph - 0.00 in Snow Light Snow
12:22 AM 21.2 °F 13.6 °F 17.6 °F 86% 30.16 in 1.2 mi North 5.8 mph - 0.00 in Snow Light Snow
12:31 AM 21.2 °F 11.7 °F 17.6 °F 86% 30.16 in 1.5 mi North 8.1 mph - 0.00 in Snow Light Snow
12:53 AM 19.9 °F 11.1 °F 17.1 °F 89% 30.31 in 1.5 mi North 6.9 mph - 0.01 in Snow Light Snow
1:01 AM 19.4 °F 10.4 °F 17.6 °F 93% 30.16 in 1.8 mi North 6.9 mph - 0.00 in Snow Light Snow
1:15 AM 19.4 °F 11.5 °F 17.6 °F 93% 30.16 in 1.8 mi North 5.8 mph - 0.00 in Snow Light Snow
1:50 AM 19.4 °F 11.5 °F 17.6 °F 93% 30.15 in 1.8 mi North 5.8 mph - 0.00 in Snow Light Snow
1:53 AM 19.9 °F 12.1 °F 17.1 °F 89% 30.29 in 1.8 mi North 5.8 mph - 0.00 in Snow Light Snow
1:57 AM 19.4 °F 11.5 °F 17.6 °F 93% 30.15 in 1.8 mi North 5.8 mph - 0.00 in Snow Light Snow
2:10 AM 19.4 °F 11.5 °F 17.6 °F 93% 30.15 in 2.5 mi NNW 5.8 mph - 0.01 in Snow Light Snow
2:25 AM 19.4 °F 9.5 °F 17.6 °F 93% 30.15 in 2.5 mi NNW 8.1 mph - 0.01 in Snow Light Snow
2:33 AM 19.4 °F 10.4 °F 17.6 °F 93% 30.15 in 2.5 mi NNW 6.9 mph - 0.01 in Snow Light Snow
2:49 AM 19.4 °F 7.9 °F 17.6 °F 93% 30.14 in 1.2 mi NNW 10.4 mph - 0.01 in Snow Light Snow
2:53 AM 19.9 °F 9.3 °F 17.1 °F 89% 30.27 in 1.0 mi NNW 9.2 mph - 0.01 in Snow Light Snow
3:07 AM 19.4 °F 8.6 °F 17.6 °F 93% 30.14 in 1.2 mi NNW 9.2 mph - 0.00 in Snow Light Snow
3:53 AM 19.9 °F 10.1 °F 16.0 °F 85% 30.27 in 1.2 mi NNW 8.1 mph - 0.01 in Snow Light Snow
4:09 AM 19.4 °F 8.6 °F 15.8 °F 86% 30.14 in 1.2 mi NNW 9.2 mph - 0.00 in Snow Light Snow
4:53 AM 19.0 °F 9.0 °F 16.0 °F 88% 30.28 in 1.8 mi North 8.1 mph - 0.00 in Snow Light Snow
5:12 AM 19.4 °F 7.9 °F 15.8 °F 86% 30.13 in 1.5 mi North 10.4 mph - 0.00 in Snow Light Snow
5:34 AM 19.4 °F 7.2 °F 15.8 °F 86% 30.13 in 2.0 mi North 11.5 mph 21.9 mph 0.00 in Snow Light Snow
5:53 AM 18.0 °F 6.1 °F 16.0 °F 92% 30.28 in 2.5 mi North 10.4 mph - 0.00 in Snow Light Snow
6:11 AM 17.6 °F 5.7 °F 15.8 °F 93% 30.13 in 3.0 mi North 10.4 mph - 0.00 in Snow Light Snow
6:38 AM 17.6 °F 2.2 °F 15.8 °F 93% 30.14 in 7.0 mi North 17.3 mph 24.2 mph 0.00 in   Overcast
6:53 AM 18.0 °F 2.2 °F 15.1 °F 88% 30.28 in 5.0 mi North 18.4 mph 24.2 mph 0.00 in   Overcast
7:38 AM 19.4 °F 4.5 °F 15.8 °F 86% 30.15 in 2.5 mi North 17.3 mph 24.2 mph N/A   Overcast
8:04 AM 19.4 °F 3.6 °F 15.8 °F 86% 30.15 in 1.8 mi North 19.6 mph - 0.00 in Snow Light Snow
8:50 AM 19.4 °F 3.2 °F 15.8 °F 86% 30.15 in 2.0 mi North 20.7 mph - 0.00 in Snow Light Snow
8:53 AM 19.0 °F 2.7 °F 15.1 °F 85% 30.30 in 2.0 mi NNW 20.7 mph - 0.00 in Snow Light Snow
9:09 AM 19.4 °F 2.8 °F 15.8 °F 86% 30.15 in 1.8 mi North 21.9 mph 27.6 mph 0.00 in Snow Light Snow
9:21 AM 19.4 °F 2.5 °F 15.8 °F 86% 30.14 in 2.0 mi North 23.0 mph 32.2 mph 0.00 in Snow Light Snow
9:33 AM 19.4 °F 3.2 °F 14.0 °F 80% 30.14 in 3.0 mi North 20.7 mph 34.5 mph 0.00 in Snow Light Snow
9:53 AM 19.9 °F 2.8 °F 15.1 °F 81% 30.28 in 4.0 mi North 24.2 mph 34.5 mph 0.00 in Snow Light Snow
10:17 AM 19.4 °F 1.4 °F 14.0 °F 80% 30.14 in 6.0 mi North 26.5 mph 35.7 mph 0.00 in   Haze
10:53 AM 19.9 °F 1.8 °F 15.1 °F 81% 30.29 in 3.0 mi North 27.6 mph 35.7 mph 0.00 in Snow Light Snow
11:00 AM 19.4 °F 2.5 °F 15.8 °F 86% 30.14 in 2.0 mi North 23.0 mph 36.8 mph 0.00 in Snow Light Snow
11:34 AM 19.4 °F 2.1 °F 14.0 °F 80% 30.14 in 3.0 mi North 24.2 mph 38.0 mph 0.00 in Snow Light Snow
11:51 AM 21.2 °F 3.9 °F 14.0 °F 74% 30.14 in 9.0 mi North 26.5 mph 34.5 mph 0.00 in   Mostly Cloudy
11:53 AM 21.0 °F 2.4 °F 14.0 °F 74% 30.29 in 9.0 mi North 31.1 mph 34.5 mph 0.00 in   Mostly Cloudy
12:06 PM 21.2 °F 4.5 °F 15.8 °F 80% 30.15 in 9.0 mi North 24.2 mph 34.5 mph 0.00 in   Mostly Cloudy
12:26 PM 21.2 °F 3.9 °F 15.8 °F 80% 30.15 in 10.0 mi North 26.5 mph 35.7 mph 0.00 in   Mostly Cloudy
12:53 PM 21.9 °F 5.5 °F 15.1 °F 75% 30.29 in 10.0 mi North 24.2 mph 36.8 mph 0.00 in   Mostly Cloudy
1:53 PM 23.0 °F 6.0 °F 14.0 °F 68% 30.28 in 10.0 mi North 27.6 mph 36.8 mph 0.00 in   Mostly Cloudy
2:53 PM 25.0 °F 9.5 °F 17.1 °F 72% 30.28 in 10.0 mi North 24.2 mph 35.7 mph 0.00 in   Overcast
3:04 PM 26.6 °F 12.4 °F 15.8 °F 64% 30.15 in 10.0 mi North 21.9 mph 29.9 mph N/A   Overcast
3:18 PM 24.8 °F 10.0 °F 17.6 °F 74% 30.15 in 5.0 mi NNW 21.9 mph 34.5 mph 0.00 in Snow Light Snow
3:53 PM 25.0 °F 10.6 °F 15.1 °F 66% 30.29 in 10.0 mi North 20.7 mph 25.3 mph 0.00 in   Mostly Cloudy
4:53 PM 26.1 °F 12.0 °F 16.0 °F 66% 30.29 in 10.0 mi North 20.7 mph - N/A   Mostly Cloudy
5:53 PM 25.0 °F 11.7 °F 14.0 °F 63% 30.31 in 10.0 mi NW 17.3 mph 26.5 mph N/A   Clear
6:53 PM 24.1 °F 9.8 °F 15.1 °F 69% 30.32 in 10.0 mi NNW 19.6 mph 26.5 mph N/A   Partly Cloudy
7:53 PM 21.9 °F 10.4 °F 16.0 °F 78% 30.32 in 10.0 mi NNW 11.5 mph - N/A   Clear
8:25 PM 21.2 °F 8.9 °F 15.8 °F 80% 30.18 in 10.0 mi North 12.7 mph - N/A   Mostly Cloudy
8:41 PM 21.2 °F 7.8 °F 17.6 °F 86% 30.18 in 4.0 mi North 15.0 mph 23.0 mph 0.00 in Snow Light Snow
8:48 PM 21.2 °F 6.4 °F 19.4 °F 93% 30.18 in 1.8 mi North 18.4 mph 23.0 mph 0.00 in Snow Light Snow
8:53 PM 21.9 °F 8.7 °F 19.0 °F 89% 30.33 in 1.8 mi North 15.0 mph 24.2 mph 0.00 in Snow Light Snow
9:12 PM 21.2 °F 7.3 °F 17.6 °F 86% 30.19 in 1.0 mi North 16.1 mph 21.9 mph 0.00 in Snow Light Snow
9:24 PM 21.2 °F 9.5 °F 17.6 °F 86% 30.19 in 2.0 mi North 11.5 mph 23.0 mph 0.00 in Snow Light Snow
9:34 PM 21.2 °F 7.3 °F 17.6 °F 86% 30.19 in 7.0 mi North 16.1 mph 23.0 mph 0.00 in Snow Light Snow
9:53 PM 21.0 °F 8.6 °F 17.1 °F 85% 30.34 in 10.0 mi North 12.7 mph 24.2 mph 0.00 in   Mostly Cloudy
10:09 PM 19.4 °F 6.0 °F 17.6 °F 93% 30.19 in 10.0 mi NNW 13.8 mph 25.3 mph N/A   Mostly Cloudy
10:53 PM 19.9 °F 7.3 °F 16.0 °F 85% 30.34 in 8.0 mi NNW 12.7 mph - 0.00 in   Mostly Cloudy
11:06 PM 19.4 °F 7.2 °F 15.8 °F 86% 30.18 in 10.0 mi NNW 11.5 mph - N/A   Scattered Clouds
11:53 PM 19.9 °F 7.9 °F 14.0 °F 78% 30.32 in 10.0 mi NW 11.5 mph - N/A   Clear